ETH706 ESSA-ENGM

Flight info

Callsign ETH706
Flight time 0h 44m
Altitude 38000
Route ARS N623 IBGAX DCT EBURI N623 ESEBA
Aircraft B77W/H-SDE1E2E3FGHIJ2J3J4J5M1RWXY/LB1D1

Departure

Time 2026-05-04 13:58
Airport Stockholm-Arlanda Airport (ESSA)

Arrival

Time 2026-05-04 14:43
Airport Oslo-Gardermoen International Airport (ENGM)
Time Latitude Longitude Altitude Speed Heading
2026-05-04 13:35 59.65391 17.93802 142 ft 0 kts 255°
2026-05-04 13:47 59.65392 17.93809 142 ft 3 kts 255°
2026-05-04 13:47 59.65398 17.93859 142 ft 4 kts 259°
2026-05-04 13:48 59.65401 17.93912 142 ft 4 kts 276°
2026-05-04 13:48 59.65393 17.93952 142 ft 3 kts 338°
2026-05-04 13:48 59.65390 17.93955 142 ft 0 kts 346°
2026-05-04 13:51 59.65400 17.93951 142 ft 0 kts 346°
2026-05-04 13:51 59.65400 17.93950 142 ft 1 kts 346°
2026-05-04 13:52 59.65447 17.93928 142 ft 7 kts 346°
2026-05-04 13:52 59.65512 17.93897 142 ft 12 kts 344°
2026-05-04 13:52 59.65580 17.93796 142 ft 14 kts 281°
2026-05-04 13:53 59.65565 17.93586 142 ft 17 kts 256°
2026-05-04 13:53 59.65535 17.93343 142 ft 19 kts 257°
2026-05-04 13:53 59.65508 17.93122 143 ft 16 kts 256°
2026-05-04 13:54 59.65436 17.92696 143 ft 17 kts 264°
2026-05-04 13:54 59.65515 17.92549 143 ft 17 kts 337°
2026-05-04 13:54 59.65732 17.92428 143 ft 15 kts 353°
2026-05-04 13:55 59.65840 17.92451 143 ft 16 kts 10°
2026-05-04 13:55 59.66047 17.92526 143 ft 14 kts
2026-05-04 13:55 59.66143 17.92560 143 ft 14 kts 11°
2026-05-04 13:56 59.66239 17.92597 143 ft 14 kts 11°
2026-05-04 13:56 59.66336 17.92630 143 ft 14 kts
2026-05-04 13:56 59.66535 17.92603 143 ft 13 kts 341°
2026-05-04 13:57 59.66609 17.92488 145 ft 12 kts 284°
2026-05-04 13:57 59.66568 17.92358 146 ft 13 kts 202°
2026-05-04 13:58 59.66319 17.92262 148 ft 66 kts 191°
2026-05-04 13:58 59.64052 17.91426 1882 ft 203 kts 193°
2026-05-04 13:58 59.62657 17.91038 3078 ft 205 kts 192°
2026-05-04 13:59 59.61253 17.90579 3994 ft 209 kts 200°
2026-05-04 13:59 59.59899 17.89252 4624 ft 223 kts 221°
2026-05-04 13:59 59.58171 17.84533 6750 ft 211 kts 245°
2026-05-04 14:00 59.57639 17.81892 7824 ft 208 kts 252°
2026-05-04 14:00 59.56725 17.75886 9053 ft 248 kts 260°
2026-05-04 14:00 59.56519 17.72502 9979 ft 248 kts 265°
2026-05-04 14:01 59.56515 17.68972 10624 ft 271 kts 271°
2026-05-04 14:01 59.56650 17.65020 10896 ft 306 kts 272°
2026-05-04 14:01 59.56966 17.56265 12955 ft 326 kts 271°
2026-05-04 14:02 59.57100 17.51765 14246 ft 330 kts 271°
2026-05-04 14:02 59.57217 17.47216 15437 ft 335 kts 270°
2026-05-04 14:02 59.57324 17.42592 16590 ft 341 kts 270°
2026-05-04 14:02 59.57422 17.37943 17754 ft 346 kts 270°
2026-05-04 14:03 59.57517 17.33102 18817 ft 351 kts 269°
2026-05-04 14:03 59.57607 17.28252 19845 ft 356 kts 269°
2026-05-04 14:03 59.57695 17.23402 20849 ft 361 kts 269°
2026-05-04 14:03 59.57782 17.18399 21849 ft 366 kts 269°
2026-05-04 14:04 59.57954 17.08246 23811 ft 374 kts 269°
2026-05-04 14:04 59.58038 17.03063 24582 ft 380 kts 269°
2026-05-04 14:04 59.58122 16.97815 25325 ft 385 kts 269°
2026-05-04 14:05 59.58286 16.87105 26828 ft 395 kts 269°
2026-05-04 14:05 59.58367 16.81636 27565 ft 400 kts 269°
2026-05-04 14:05 59.58448 16.76117 28253 ft 405 kts 269°
2026-05-04 14:06 59.58526 16.70526 28925 ft 409 kts 269°
2026-05-04 14:06 59.58614 16.64950 29560 ft 414 kts 271°
2026-05-04 14:06 59.58999 16.59252 29975 ft 424 kts 278°
2026-05-04 14:06 59.59634 16.53494 30283 ft 432 kts 279°
2026-05-04 14:07 59.60299 16.47681 30681 ft 436 kts 279°
2026-05-04 14:07 59.60943 16.41832 31187 ft 436 kts 279°
2026-05-04 14:07 59.61557 16.35967 31693 ft 435 kts 278°
2026-05-04 14:07 59.62149 16.30102 32223 ft 435 kts 278°
2026-05-04 14:08 59.62732 16.24237 32758 ft 434 kts 278°
2026-05-04 14:08 59.63331 16.18392 33288 ft 433 kts 279°
2026-05-04 14:08 59.63977 16.12662 33768 ft 433 kts 280°
2026-05-04 14:08 59.64655 16.06863 34134 ft 434 kts 280°
2026-05-04 14:09 59.66019 15.95157 34772 ft 437 kts 280°
2026-05-04 14:09 59.66692 15.89277 35127 ft 438 kts 280°
2026-05-04 14:10 59.68017 15.77534 36013 ft 436 kts 279°
2026-05-04 14:10 59.68672 15.71659 36303 ft 438 kts 279°
2026-05-04 14:10 59.69319 15.65828 36567 ft 440 kts 279°
2026-05-04 14:10 59.69976 15.59890 36879 ft 441 kts 279°
2026-05-04 14:11 59.70613 15.54105 37190 ft 442 kts 279°
2026-05-04 14:11 59.71927 15.42119 37587 ft 448 kts 279°
2026-05-04 14:11 59.72585 15.36069 37639 ft 447 kts 279°
2026-05-04 14:12 59.73875 15.24181 37642 ft 435 kts 279°
2026-05-04 14:13 59.75750 15.06669 37654 ft 435 kts 279°
2026-05-04 14:13 59.76995 14.94906 37655 ft 436 kts 279°
2026-05-04 14:14 59.78232 14.83128 37662 ft 436 kts 279°
2026-05-04 14:14 59.80064 14.65505 37640 ft 427 kts 278°
2026-05-04 14:15 59.81238 14.54075 36705 ft 420 kts 278°
2026-05-04 14:15 59.82388 14.42743 35326 ft 418 kts 278°
2026-05-04 14:16 59.83515 14.31564 34152 ft 410 kts 279°
2026-05-04 14:16 59.84076 14.25959 33587 ft 405 kts 279°
2026-05-04 14:17 59.85149 14.15170 32430 ft 394 kts 279°
2026-05-04 14:17 59.85673 14.09867 31888 ft 389 kts 279°
2026-05-04 14:17 59.86696 13.99439 30855 ft 378 kts 279°
2026-05-04 14:18 59.87194 13.94330 30365 ft 373 kts 279°
2026-05-04 14:18 59.88162 13.84336 29288 ft 362 kts 280°
2026-05-04 14:19 59.89095 13.74643 28244 ft 350 kts 279°
2026-05-04 14:19 59.89545 13.69931 27762 ft 344 kts 279°
2026-05-04 14:19 59.89989 13.65276 27274 ft 339 kts 279°
2026-05-04 14:19 59.90422 13.60703 26811 ft 334 kts 278°
2026-05-04 14:20 59.90705 13.57710 26494 ft 331 kts 278°
2026-05-04 14:20 59.91264 13.51770 25887 ft 326 kts 278°
2026-05-04 14:20 59.91545 13.48774 25573 ft 324 kts 278°
2026-05-04 14:21 59.92355 13.40079 24680 ft 318 kts 277°
2026-05-04 14:21 59.92755 13.35766 24252 ft 315 kts 277°
2026-05-04 14:21 59.93150 13.31488 23827 ft 313 kts 277°
2026-05-04 14:21 59.93541 13.27234 23419 ft 311 kts 277°
2026-05-04 14:22 59.93930 13.22995 22912 ft 309 kts 277°
2026-05-04 14:22 59.94314 13.18788 22440 ft 306 kts 277°
2026-05-04 14:22 59.94691 13.14637 22010 ft 302 kts 277°
2026-05-04 14:22 59.95064 13.10534 21592 ft 298 kts 277°
2026-05-04 14:23 59.95790 13.02492 20769 ft 291 kts 277°
2026-05-04 14:23 59.96144 12.98545 20367 ft 287 kts 276°
2026-05-04 14:23 59.96492 12.94650 19973 ft 284 kts 276°
2026-05-04 14:24 59.96836 12.90779 19591 ft 283 kts 276°
2026-05-04 14:24 59.97176 12.86934 19212 ft 287 kts 276°
2026-05-04 14:24 59.97528 12.82957 18815 ft 295 kts 276°
2026-05-04 14:24 59.97885 12.78910 18413 ft 297 kts 276°
2026-05-04 14:25 59.98241 12.74864 17996 ft 294 kts 276°
2026-05-04 14:25 59.98932 12.66924 17119 ft 285 kts 277°
2026-05-04 14:25 59.99267 12.63049 16698 ft 281 kts 277°
2026-05-04 14:26 59.99598 12.59207 16313 ft 278 kts 277°
2026-05-04 14:26 59.99920 12.55471 15911 ft 275 kts 277°
2026-05-04 14:26 60.00240 12.51722 15534 ft 272 kts 277°
2026-05-04 14:26 60.00556 12.48000 15167 ft 271 kts 277°
2026-05-04 14:27 60.00875 12.44268 14786 ft 272 kts 278°
2026-05-04 14:27 60.01512 12.40623 14414 ft 288 kts 292°
2026-05-04 14:27 60.02580 12.37120 14019 ft 300 kts 301°
2026-05-04 14:27 60.04028 12.34043 13585 ft 305 kts 311°
2026-05-04 14:28 60.05624 12.31276 13162 ft 303 kts 313°
2026-05-04 14:28 60.07214 12.28540 12714 ft 300 kts 313°
2026-05-04 14:28 60.08778 12.25796 12303 ft 298 kts 313°
2026-05-04 14:28 60.10322 12.23117 11892 ft 295 kts 314°
2026-05-04 14:29 60.13424 12.17786 11101 ft 291 kts 314°
2026-05-04 14:29 60.16474 12.12521 10456 ft 283 kts 314°
2026-05-04 14:30 60.17934 12.09996 10348 ft 273 kts 314°
2026-05-04 14:30 60.19340 12.07562 10202 ft 258 kts 314°
2026-05-04 14:30 60.21927 12.03066 10011 ft 239 kts 314°
2026-05-04 14:31 60.23159 12.00920 9901 ft 229 kts 314°
2026-05-04 14:31 60.25506 11.96820 9744 ft 226 kts 313°
2026-05-04 14:32 60.27455 11.91845 9353 ft 226 kts 296°
2026-05-04 14:32 60.28231 11.89083 9115 ft 226 kts 296°
2026-05-04 14:32 60.29003 11.86323 8904 ft 226 kts 296°
2026-05-04 14:32 60.29782 11.83551 8687 ft 227 kts 296°
2026-05-04 14:33 60.30554 11.80825 8465 ft 226 kts 296°
2026-05-04 14:33 60.31342 11.78053 8264 ft 228 kts 296°
2026-05-04 14:33 60.32137 11.75265 8017 ft 229 kts 296°
2026-05-04 14:33 60.32936 11.72474 7816 ft 229 kts 297°
2026-05-04 14:34 60.33736 11.69681 7587 ft 229 kts 297°
2026-05-04 14:34 60.34516 11.66962 7359 ft 226 kts 297°
2026-05-04 14:34 60.35295 11.64245 7232 ft 219 kts 297°
2026-05-04 14:34 60.36047 11.61620 7180 ft 216 kts 296°
2026-05-04 14:35 60.36811 11.58948 7009 ft 223 kts 297°
2026-05-04 14:35 60.37595 11.56202 6812 ft 227 kts 297°
2026-05-04 14:35 60.38386 11.53442 6596 ft 226 kts 297°
2026-05-04 14:35 60.39166 11.50710 6359 ft 223 kts 297°
2026-05-04 14:36 60.39934 11.48020 6148 ft 218 kts 297°
2026-05-04 14:36 60.40688 11.45374 5946 ft 216 kts 297°
2026-05-04 14:36 60.41436 11.42741 5731 ft 215 kts 296°
2026-05-04 14:36 60.41982 11.40026 5490 ft 206 kts 275°
2026-05-04 14:37 60.41919 11.37118 5345 ft 210 kts 263°
2026-05-04 14:37 60.41700 11.34140 5112 ft 217 kts 261°
2026-05-04 14:37 60.41468 11.31157 4923 ft 217 kts 261°
2026-05-04 14:37 60.41236 11.28153 4729 ft 214 kts 262°
2026-05-04 14:38 60.41009 11.25217 4579 ft 208 kts 262°
2026-05-04 14:38 60.40775 11.22342 4376 ft 205 kts 256°
2026-05-04 14:38 60.40018 11.19961 4239 ft 209 kts 217°
2026-05-04 14:38 60.38637 11.18984 4144 ft 209 kts 197°
2026-05-04 14:39 60.37269 11.18279 4033 ft 196 kts 201°
2026-05-04 14:39 60.35968 11.17534 3741 ft 196 kts 200°
2026-05-04 14:39 60.34618 11.16822 3356 ft 204 kts 200°
2026-05-04 14:40 60.31953 11.15278 2869 ft 195 kts 204°
2026-05-04 14:40 60.30670 11.14486 2541 ft 193 kts 200°
2026-05-04 14:40 60.29395 11.13724 2166 ft 186 kts 203°
2026-05-04 14:40 60.28219 11.13000 2137 ft 184 kts 202°
2026-05-04 14:41 60.26985 11.12313 2100 ft 182 kts 201°
2026-05-04 14:41 60.25777 11.11634 1772 ft 181 kts 202°
2026-05-04 14:41 60.23464 11.10220 1114 ft 161 kts 201°
2026-05-04 14:42 60.21547 11.09142 717 ft 125 kts 200°
2026-05-04 14:42 60.20777 11.08674 683 ft 103 kts 194°
2026-05-04 14:42 60.20168 11.08338 680 ft 71 kts 195°
2026-05-04 14:43 60.19836 11.08139 678 ft 36 kts 197°
2026-05-04 14:43 60.19658 11.08130 674 ft 20 kts 169°
2026-05-04 14:43 60.19589 11.08214 677 ft 8 kts 125°
2026-05-04 14:43 60.19572 11.08328 679 ft 9 kts 92°
2026-05-04 14:44 60.19616 11.08406 679 ft 9 kts 23°
2026-05-04 14:44 60.19679 11.08450 676 ft 10 kts 14°
2026-05-04 14:44 60.19755 11.08492 680 ft 12 kts 16°
2026-05-04 14:44 60.19840 11.08542 680 ft 14 kts 16°
2026-05-04 14:45 60.19936 11.08596 680 ft 15 kts 15°
2026-05-04 14:45 60.20034 11.08651 678 ft 15 kts 15°
2026-05-04 14:45 60.20130 11.08721 676 ft 15 kts 43°
2026-05-04 14:45 60.20126 11.08922 679 ft 15 kts 105°
2026-05-04 14:46 60.20104 11.09086 682 ft 8 kts 106°
2026-05-04 14:46 60.20088 11.09203 685 ft 9 kts 106°
2026-05-04 14:46 60.20069 11.09332 681 ft 10 kts 106°
2026-05-04 14:46 60.20049 11.09472 682 ft 11 kts 106°
2026-05-04 14:47 60.20027 11.09622 685 ft 13 kts 106°
2026-05-04 14:47 60.19996 11.09844 680 ft 21 kts 105°
2026-05-04 14:47 60.19957 11.10118 686 ft 18 kts 106°
2026-05-04 14:47 60.19921 11.10360 681 ft 18 kts 106°
2026-05-04 14:48 60.19886 11.10603 684 ft 18 kts 106°
2026-05-04 14:48 60.19855 11.10816 686 ft 14 kts 106°
2026-05-04 14:48 60.19828 11.11004 684 ft 14 kts 106°
2026-05-04 14:48 60.19802 11.11200 687 ft 15 kts 105°
2026-05-04 14:49 60.19764 11.11404 684 ft 16 kts 132°
2026-05-04 14:49 60.19658 11.11418 686 ft 17 kts 194°
2026-05-04 14:49 60.19565 11.11366 683 ft 12 kts 196°
2026-05-04 14:49 60.19467 11.11309 684 ft 18 kts 196°
2026-05-04 14:50 60.19330 11.11226 683 ft 23 kts 197°
2026-05-04 14:50 60.19224 11.11171 683 ft 9 kts 194°
2026-05-04 14:50 60.19200 11.11158 682 ft 5 kts 194°
2026-05-04 14:50 60.19146 11.11129 684 ft 10 kts 202°
2026-05-04 14:51 60.19138 11.11032 683 ft 9 kts 295°
2026-05-04 14:51 60.19184 11.10904 683 ft 13 kts 329°
2026-05-04 14:51 60.19242 11.10853 681 ft 2 kts 338°
2026-05-04 14:51 60.19253 11.10845 679 ft 1 kts 339°
2026-05-04 14:52 60.19258 11.10841 679 ft 0 kts 339°